This demonstration page uses our WeatherBlox Daily Observations layout. Learn more.

38.89511, -77.03637

Hourly Observations for September 17, 2017

Temp ( °F °C ) Dew Point ( °F °C ) Humidity (%) Winds ( mph kmh ) Pressure ( in mb ) Visibility ( mi km ) Precip ( " mm )
12:52 am 00:52 Mostly Clear 72 22.2 68 20 87 87 E 3 6 30.12 1020 10 16.09344 0 0
1:52 am 01:52 Clear 72 22.2 68 20 87 87 SSW 3 6 30.09 1019 10 16.09344 0 0
2:52 am 02:52 Clear 71 21.7 68 20 90 90 Calm 30.09 1019 10 16.09344 0 0
3:52 am 03:52 Clear 71 21.7 68 20 90 90 NE 3 6 30.09 1019 10 16.09344 0 0
4:52 am 04:52 Partly Cloudy 69 20.6 68 20 96 96 NE 5 7 30.09 1019 10 16.09344 0 0
5:52 am 05:52 Partly Cloudy 69 20.6 67 19.4 93 93 NE 7 11 30.12 1020 10 16.09344 0 0
6:52 am 06:52 Partly Cloudy 69 20.6 67 19.4 93 93 NNE 5 7 30.12 1020 10 16.09344 0 0
7:48 am 07:48 Cloudy 70 21 70 21 100 100 N 3 6 30.18 1022 7 11.265408 0 0
7:52 am 07:52 Cloudy 70 21.1 69 20.6 97 97 N 3 6 30.15 1021 7 11.265408 0 0
8:26 am 08:26 Cloudy 71 21.7 69 20.6 94 94 Calm 30.15 1021 9 14.484096 0 0
8:38 am 08:38 Mostly Cloudy 72 22.2 69 20.6 91 91 Calm 30.15 1021 10 16.09344 0 0
8:52 am 08:52 Mostly Cloudy 73 22.8 69 20.6 87 87 Calm 30.15 1021 10 16.09344 0 0
8:59 am 08:59 Mostly Cloudy 73 22.8 69 20.6 87 87 Calm 30.15 1021 10 16.09344 0 0
9:32 am 09:32 Mostly Cloudy 74 23.3 70 21.1 88 88 Calm 30.15 1021 10 16.09344 0 0
9:52 am 09:52 Mostly Cloudy 74 23.3 70 21.1 88 88 NNE 3 6 30.15 1021 10 16.09344 0 0
10:27 am 10:27 Cloudy 75 23.9 69 20.6 82 82 Calm 30.15 1021 10 16.09344 0 0
10:52 am 10:52 Mostly Cloudy 78 25.6 70 21.1 76 76 NNE 6 9 30.15 1021 10 16.09344 0 0
11:52 am 11:52 Mostly Cloudy 79 26.1 69 20.6 72 72 NNE 7 11 30.12 1020 10 16.09344 0 0
12:52 pm 12:52 Mostly Cloudy 81 27.2 71 21.7 72 72 N 7 11 30.12 1020 10 16.09344 0 0
1:52 pm 13:52 Mostly Cloudy 82 27.8 69 20.6 65 65 NNE 6 9 30.09 1019 10 16.09344 0 0
2:47 pm 14:47 Mostly Cloudy 84 29 68 20 58 58 Calm 30.09 1019 10 16.09344 0 0
2:52 pm 14:52 Mostly Cloudy 84 28.9 68 20 59 59 E 3 6 30.09 1019 10 16.09344 0 0
3:52 pm 15:52 Partly Cloudy 84 28.9 68 20 59 59 ENE 6 9 30.06 1018 10 16.09344 0 0
4:52 pm 16:52 Partly Cloudy 80 26.7 69 20.6 69 69 ESE 10 17 30.06 1018 10 16.09344 0 0
5:52 pm 17:52 Mostly Cloudy 79 26.1 69 20.6 72 72 E 8 13 30.06 1018 10 16.09344 0 0
6:52 pm 18:52 Partly Cloudy 78 25.6 68 20 71 71 ESE 5 7 30.06 1018 10 16.09344 0 0
7:52 pm 19:52 Mostly Clear 77 25 69 20.6 77 77 Calm 30.06 1018 10 16.09344 0 0
8:52 pm 20:52 Mostly Clear 76 24.4 69 20.6 79 79 NE 3 6 30.09 1019 10 16.09344 0 0
9:52 pm 21:52 Mostly Clear 74 23.3 69 20.6 85 85 E 6 9 30.09 1019 10 16.09344 0 0
10:52 pm 22:52 Mostly Clear 74 23.3 69 20.6 85 85 Calm 30.09 1019 10 16.09344 0 0
11:52 pm 23:52 Mostly Clear 73 22.8 69 20.6 87 87 NE 3 6 30.09 1019 10 16.09344 0 0

Powered by AerisWeather